Change the Weather History Date:

Tuesday, January 1, 2013

  Actual Average (KPDC) Record (KPDC)
Temperature  
Mean Temperature 4 °F -  
Max Temperature 16 °F 26 °F 45 °F (1950)
Min Temperature -9 °F 11 °F -19 °F (1969)
Degree Days  
Heating Degree Days 62    
Moisture  
Dew Point -3 °F    
Average Humidity 70    
Maximum Humidity 95    
Minimum Humidity 47    
Precipitation  
Precipitation 0.00 in - - ()
Sea Level Pressure  
Sea Level Pressure 30.27 in    
Wind  
Wind Speed 2 mph (SW)    
Max Wind Speed 7 mph    
Max Gust Speed -    
Visibility 9 miles    
Events      
Averages and records for this station are not official NWS values.
T = Trace of Precipitation, MM = Missing Value Source: NWS Daily Summary

Daily Weather History Graph

Daily Weather History Graph

Search for Another Location

Airport or City:

Trip Planner

Search our weather history database for the weather conditions in past years. The results will help you decide how hot, cold, wet, or windy it might be!

Date:

Astronomy

Jan. 01, 2013 Rise Set
Actual Time 7:34 AM CST 4:38 PM CST
Civil Twilight 7:02 AM CST 5:10 PM CST
Nautical Twilight 6:26 AM CST 5:46 PM CST
Astronomical Twilight 5:51 AM CST 6:21 PM CST
Moon 9:17 PM CST (1/1) 9:39 AM CST (1/1)
Length of Visible Light 10h 08m
Length of Day
9h 03m
Waning Gibbous, 83% of the Moon is Illuminated
Jan 1
Waning Gibbous
Jan 4
Last Quarter
Jan 11
New
Jan 18
First Quarter
Jan 26
Full

Hourly Weather History & Observations

Time (CST) Temp. Windchill Dew Point Humidity Pressure Visibility Wind Dir Wind Speed Gust Speed Precip Events Conditions
1:53 AM -2.0 °F - -6.0 °F 83% 30.27 in 6.0 mi Calm Calm - N/A   Clear
2:12 AM -4.0 °F - -7.6 °F 85% 30.23 in 1.8 mi Calm Calm - N/A   Clear
2:28 AM -2.2 °F - -9.4 °F 71% 30.23 in 2.5 mi Calm Calm - N/A   Haze
2:40 AM -4.0 °F - -7.6 °F 85% 30.23 in 3.0 mi Calm Calm - N/A   Clear
2:53 AM -4.0 °F - -11.0 °F 72% 30.29 in 7.0 mi Calm Calm - N/A   Clear
3:53 AM -4.0 °F - -9.9 °F 76% 30.30 in 9.0 mi Calm Calm - N/A   Clear
4:53 AM -4.0 °F -12.4 °F -9.9 °F 76% 30.31 in 9.0 mi SW 3.5 mph - N/A   Clear
5:53 AM -7.1 °F - -11.9 °F 79% 30.32 in 10.0 mi Calm Calm - N/A   Clear
6:53 AM -7.1 °F - -13.0 °F 75% 30.34 in 10.0 mi Calm Calm - N/A   Clear
7:53 AM -9.9 °F - -16.1 °F 74% 30.36 in 9.0 mi Calm Calm - N/A   Clear
8:53 AM -6.0 °F - -11.0 °F 79% 30.35 in 9.0 mi Calm Calm - N/A   Clear
9:53 AM 1.0 °F - -0.0 °F 95% 30.33 in 8.0 mi Calm Calm - N/A   Clear
10:53 AM 7.0 °F - 1.9 °F 80% 30.32 in 10.0 mi Calm Calm - N/A   Clear
11:53 AM 10.9 °F 2.9 °F 1.9 °F 67% 30.30 in 10.0 mi SSW 4.6 mph - N/A   Clear
12:53 PM 15.1 °F 5.2 °F 1.9 °F 56% 30.28 in 10.0 mi SSW 6.9 mph - N/A   Clear
1:53 PM 16.0 °F 6.3 °F 1.9 °F 54% 30.27 in 10.0 mi SSW 6.9 mph - N/A   Clear
2:53 PM 16.0 °F 10.4 °F -0.0 °F 49% 30.26 in 10.0 mi WNW 3.5 mph - N/A   Clear
3:53 PM 16.0 °F 8.8 °F -0.9 °F 47% 30.25 in 10.0 mi West 4.6 mph - N/A   Clear
4:53 PM 10.9 °F 1.4 °F -0.9 °F 59% 30.26 in 10.0 mi SW 5.8 mph - N/A   Scattered Clouds
5:53 PM 9.0 °F -0.9 °F -0.9 °F 64% 30.26 in 10.0 mi SSW 5.8 mph - N/A   Clear
6:53 PM 7.0 °F -4.5 °F -2.0 °F 67% 30.26 in 10.0 mi SSW 6.9 mph - N/A   Scattered Clouds
7:29 PM 10.4 °F -0.4 °F 1.4 °F 67% 30.19 in 10.0 mi SSW 6.9 mph - N/A   Overcast
7:53 PM 10.9 °F 0.2 °F 1.0 °F 64% 30.25 in 10.0 mi SSW 6.9 mph - N/A   Overcast
8:36 PM 10.4 °F 0.8 °F 1.4 °F 67% 30.19 in 10.0 mi SW 5.8 mph - N/A   Overcast
8:53 PM 10.9 °F 1.4 °F 3.0 °F 70% 30.23 in 10.0 mi SSW 5.8 mph - N/A   Overcast
9:09 PM 12.2 °F 2.9 °F 3.2 °F 67% 30.17 in 10.0 mi SSW 5.8 mph - N/A   Overcast
9:53 PM 12.0 °F 2.7 °F 3.9 °F 70% 30.22 in 10.0 mi SW 5.8 mph - N/A   Overcast
10:53 PM 12.9 °F - 3.9 °F 67% 30.22 in 10.0 mi Calm Calm - N/A   Overcast
11:53 PM 14.0 °F 8.2 °F 5.0 °F 67% 30.20 in 10.0 mi SW 3.5 mph - N/A   Overcast